Flag for Spain Weather past 2 weeks in Almería, Spain

Now
56 °F

Cool.


Feels Like: 55 °F
Forecast: 53 / 65 °F
Wind: 8 mph from Northwest

Location: Almeria / Aeropuerto

Current Time: Dec 21, 2014 at 6:16:41 AM

Latest Report: Dec 21, 2014 at 5:00 AM


Visibility: N/A

Pressure: 30.45 "Hg

Humidity: 79%

Dew point: 50 °F

Location of AlmeríaLocation

Historic Weather in Almería — Graph

°F

Almería temperature yesterday

Maximum temperature yesterday: 66 °F (at 4:00 PM)
Minimum temperature yesterday: 51 °F (at 6:00 AM)
Average temperature yesterday: 58 °F

Past Weeks' High & Low Weather Summary

 TemperatureHumidityPressure
High69 °F (Dec 9, 3:00 PM)94% (Dec 14, 12:00 PM)30.47 "Hg (Dec 14, 12:00 PM)
Low45 °F (Dec 10, 8:00 AM)26% (Dec 9, 3:00 PM)29.87 "Hg (Dec 14, 4:00 PM)
Average57 °F64%30.22 "Hg
* Reported Dec 6 5:00 AM — Dec 21 5:00 AM, Almería, Weather by CustomWeather, © 2014

Note: Actual official high and low records may vary slightly from our data, if they occured in-between our weather recording intervals... More about our weather records

Advertising

Almería weather history for previous 24 hours

 ConditionsComfort  
Time TempWeatherWind HumidityBarometerVisibility
5:00 AM
Dec 21
56 °FCool.8 mph79%30.45 "HgN/A
4:00 AM57 °FCool.8 mph79%30.45 "HgN/A
3:00 AM56 °FCool.6 mph83%30.45 "HgN/A
2:00 AM57 °FCool.5 mph83%30.45 "HgN/A
1:00 AM57 °FCool.7 mph83%30.45 "HgN/A
12:00 AM59 °FCool.6 mph76%30.46 "HgN/A
11:00 PM
Dec 20
58 °FCool.5 mph82%30.45 "HgN/A
9:00 PM60 °FCool.8 mph82%30.44 "HgN/A
8:00 PM58 °FCool.3 mph86%30.43 "HgN/A
7:00 PM59 °FPassing clouds.5 mph85%30.42 "Hg6 mi
6:00 PM62 °FCool.5 mph79%30.40 "HgN/A
5:00 PM65 °FMild.5 mph77%30.39 "HgN/A
4:00 PM66 °FPassing clouds.6 mph76%30.39 "Hg9 mi
3:00 PM64 °FMild.8 mph78%30.40 "HgN/A
2:00 PM64 °FMild.5 mph73%30.41 "HgN/A
1:00 PM63 °FSunny.5 mph79%30.44 "Hg9 mi
12:00 PM64 °FMild.3 mph78%30.46 "HgN/A
11:00 AM63 °FMild.No wind76%30.46 "HgN/A
10:00 AM59 °FPassing clouds.No wind82%30.44 "Hg6 mi
9:00 AM52 °FCool.5 mph90%30.42 "HgN/A
8:00 AM52 °FCool.5 mph93%30.41 "HgN/A
7:00 AM52 °FPassing clouds.3 mph85%30.40 "Hg6 mi
6:00 AM51 °FCool.5 mph83%30.39 "HgN/A
Weather by CustomWeather, © 2014

See weather overviewHow to use our weather pages